timestamp,wind_dir_avg,wind_spd_avg,wind_spd_max_dir,wind_spd_gust,battery_voltage,lat,long
2021-12-15 00:04:01+00:00,335.0,12.95,334.0,15.24,12.17,47.59359,-54.27349
2021-12-15 00:14:01+00:00,338.0,12.32,343.0,13.71,12.17,47.59359,-54.27349
2021-12-15 00:24:01+00:00,327.0,12.6,320.0,14.83,12.17,47.59359,-54.27349
2021-12-15 00:34:01+00:00,335.0,14.47,337.0,17.32,12.17,47.59359,-54.27349
2021-12-15 00:44:01+00:00,338.0,11.17,348.0,13.78,12.17,47.59359,-54.27349
2021-12-15 00:54:01+00:00,326.0,11.81,333.0,14.19,12.17,47.59359,-54.27349
2021-12-15 01:04:01+00:00,326.0,11.57,320.0,13.84,12.17,47.59359,-54.27349
2021-12-15 01:14:00+00:00,325.0,12.86,316.0,17.32,12.09,47.59359,-54.27349
2021-12-15 01:24:00+00:00,331.0,13.15,311.0,16.17,12.09,47.59359,-54.27349
2021-12-15 01:34:00+00:00,328.0,10.92,323.0,13.84,12.09,47.59359,-54.27349
2021-12-15 01:44:00+00:00,330.0,11.98,343.0,13.52,12.09,47.59359,-54.27349
2021-12-15 01:54:00+00:00,315.0,15.06,313.0,17.7,12.09,47.59359,-54.27349
2021-12-15 02:04:00+00:00,335.0,12.21,339.0,14.12,12.09,47.59359,-54.27349
2021-12-15 02:14:00+00:00,337.0,13.69,342.0,15.4,12.09,47.59359,-54.27349
2021-12-15 02:24:00+00:00,326.0,11.67,315.0,14.97,12.09,47.59359,-54.27349
2021-12-15 02:34:00+00:00,324.0,12.03,324.0,13.78,12.09,47.59359,-54.27349
2021-12-15 02:44:00+00:00,329.0,12.28,320.0,14.97,12.09,47.59359,-54.27349
2021-12-15 02:54:00+00:00,322.0,13.83,311.0,17.77,12.09,47.59359,-54.27349
2021-12-15 03:04:00+00:00,337.0,14.56,326.0,17.27,12.09,47.59359,-54.27349
2021-12-15 03:14:00+00:00,341.0,13.9,344.0,15.42,12.09,47.59359,-54.27349
2021-12-15 03:24:00+00:00,322.0,13.98,311.0,19.27,12.09,47.59359,-54.27349
2021-12-15 03:34:00+00:00,329.0,12.02,322.0,15.33,12.09,47.59359,-54.27349
2021-12-15 03:44:00+00:00,317.0,13.36,311.0,16.65,12.09,47.59359,-54.27349
2021-12-15 03:54:00+00:00,307.0,14.14,304.0,16.93,12.09,47.59359,-54.27349
2021-12-15 04:04:00+00:00,310.0,12.96,310.0,16.69,12.09,47.59359,-54.27349
2021-12-15 04:14:00+00:00,326.0,11.56,317.0,15.59,12.09,47.59359,-54.27349
2021-12-15 04:24:00+00:00,310.0,12.43,306.0,15.95,12.09,47.59359,-54.27349
2021-12-15 04:34:00+00:00,313.0,14.62,315.0,18.27,12.09,47.59359,-54.27349
2021-12-15 04:44:00+00:00,308.0,16.38,309.0,18.95,12.09,47.59359,-54.27349
2021-12-15 04:54:00+00:00,313.0,14.51,310.0,18.29,12.09,47.59359,-54.27349
2021-12-15 05:04:00+00:00,308.0,14.09,309.0,17.35,12.09,47.59359,-54.27349
2021-12-15 05:14:01+00:00,309.0,12.62,301.0,16.53,12.09,47.59359,-54.27349
2021-12-15 05:24:01+00:00,319.0,13.72,313.0,18.2,12.09,47.59359,-54.27349
2021-12-15 05:34:01+00:00,304.0,15.97,307.0,18.09,12.09,47.59359,-54.27349
2021-12-15 05:44:01+00:00,320.0,12.56,315.0,17.15,12.09,47.59359,-54.27349
2021-12-15 05:54:01+00:00,319.0,13.99,311.0,16.41,12.09,47.59359,-54.27349
2021-12-15 06:04:01+00:00,305.0,15.64,309.0,17.9,12.09,47.59359,-54.27349
2021-12-15 06:14:01+00:00,320.0,10.7,304.0,15.88,12.09,47.59359,-54.27349
2021-12-15 06:24:01+00:00,315.0,12.31,308.0,16.23,12.09,47.59359,-54.27349
2021-12-15 06:34:01+00:00,326.0,10.63,309.0,14.92,12.09,47.59359,-54.27349
2021-12-15 06:44:01+00:00,318.0,10.78,306.0,16.02,12.09,47.59359,-54.27349
2021-12-15 06:54:01+00:00,328.0,10.27,306.0,14.57,12.09,47.59359,-54.27349
2021-12-15 07:04:01+00:00,306.0,11.68,302.0,17.13,12.09,47.59359,-54.27349
2021-12-15 07:14:00+00:00,326.0,9.69,321.0,11.82,12.09,47.59359,-54.27349
2021-12-15 07:24:00+00:00,310.0,12.26,303.0,16.9,12.09,47.59359,-54.27349
2021-12-15 07:34:00+00:00,306.0,14.07,306.0,16.92,12.09,47.59359,-54.27349
2021-12-15 07:44:00+00:00,317.0,8.74,303.0,15.33,12.09,47.59359,-54.27349
2021-12-15 07:54:00+00:00,323.0,8.23,305.0,10.64,12.09,47.59359,-54.27349
2021-12-15 08:04:00+00:00,303.0,9.79,299.0,14.81,12.09,47.59359,-54.27349
2021-12-15 08:14:00+00:00,335.0,7.56,317.0,10.29,12.09,47.59359,-54.27349
2021-12-15 08:24:00+00:00,316.0,7.41,295.0,13.18,12.09,47.59359,-54.27349
2021-12-15 08:34:00+00:00,327.0,6.03,305.0,9.79,12.09,47.59359,-54.27349
2021-12-15 08:44:00+00:00,306.0,11.02,301.0,15.4,12.09,47.59359,-54.27349
2021-12-15 08:54:00+00:00,321.0,7.17,299.0,10.1,12.09,47.59359,-54.27349
2021-12-15 09:04:00+00:00,325.0,8.31,303.0,12.53,12.09,47.59359,-54.27349
2021-12-15 09:14:01+00:00,303.0,13.03,303.0,16.9,12.09,47.59359,-54.27349
2021-12-15 09:24:01+00:00,312.0,8.06,303.0,11.91,12.09,47.59359,-54.27349
2021-12-15 09:34:01+00:00,334.0,9.17,328.0,12.15,12.09,47.59359,-54.27349
2021-12-15 09:44:01+00:00,322.0,5.67,315.0,9.4,12.09,47.59359,-54.27349
2021-12-15 09:54:01+00:00,314.0,7.73,295.0,13.58,12.09,47.59359,-54.27349
2021-12-15 10:04:01+00:00,324.0,5.32,309.0,7.65,12.09,47.59359,-54.27349
2021-12-15 10:14:01+00:00,294.0,7.61,288.0,14.19,12.09,47.59359,-54.27349
2021-12-15 10:24:01+00:00,313.0,6.83,306.0,10.7,12.09,47.59359,-54.27349
2021-12-15 10:34:01+00:00,331.0,7.68,314.0,9.98,12.09,47.59359,-54.27349
2021-12-15 10:44:01+00:00,305.0,7.66,306.0,9.44,12.09,47.59359,-54.27349
2021-12-15 10:54:01+00:00,319.0,6.01,299.0,9.0,12.09,47.59359,-54.27349
2021-12-15 11:04:01+00:00,311.0,7.54,291.0,12.53,12.09,47.59359,-54.27349
2021-12-15 11:14:01+00:00,323.0,6.39,324.0,8.58,12.09,47.59359,-54.27349
2021-12-15 11:24:01+00:00,324.0,6.61,313.0,8.57,12.09,47.59359,-54.27349
2021-12-15 11:34:01+00:00,311.0,10.05,301.0,14.58,12.09,47.59359,-54.27349
2021-12-15 11:44:01+00:00,324.0,8.92,321.0,11.17,12.09,47.59359,-54.27349
2021-12-15 11:54:01+00:00,327.0,7.1,316.0,9.25,12.09,47.59359,-54.27349
2021-12-15 12:04:01+00:00,330.0,8.38,319.0,11.45,12.09,47.59359,-54.27349
2021-12-15 12:14:01+00:00,318.0,8.43,302.0,11.16,12.41,47.59359,-54.27349
2021-12-15 12:24:01+00:00,302.0,12.57,299.0,15.68,12.41,47.59359,-54.27349
2021-12-15 12:34:01+00:00,317.0,11.75,301.0,16.25,12.41,47.59359,-54.27349
2021-12-15 12:44:01+00:00,331.0,9.22,325.0,11.49,12.41,47.59359,-54.27349
2021-12-15 12:54:01+00:00,319.0,12.79,311.0,17.26,12.41,47.59359,-54.27349
2021-12-15 13:04:01+00:00,330.0,9.78,329.0,11.66,12.41,47.59359,-54.27349
2021-12-15 13:14:00+00:00,330.0,10.09,331.0,11.56,12.89,47.59359,-54.27349
2021-12-15 13:24:00+00:00,330.0,13.57,313.0,16.21,12.89,47.59359,-54.27349
2021-12-15 13:34:00+00:00,326.0,10.01,316.0,15.62,12.89,47.59359,-54.27349
2021-12-15 13:44:00+00:00,321.0,11.94,312.0,16.83,12.89,47.59359,-54.27349
2021-12-15 13:54:00+00:00,322.0,11.86,311.0,16.46,12.89,47.59359,-54.27349
2021-12-15 14:04:00+00:00,308.0,15.01,306.0,17.29,12.89,47.59359,-54.27349
2021-12-15 14:14:00+00:00,310.0,14.69,305.0,17.38,14.4,47.59359,-54.27349
2021-12-15 14:24:00+00:00,308.0,16.09,307.0,18.41,14.4,47.59359,-54.27349
2021-12-15 14:34:00+00:00,329.0,14.27,316.0,18.17,14.4,47.59359,-54.27349
2021-12-15 14:44:00+00:00,307.0,16.36,306.0,17.83,14.4,47.59359,-54.27349
2021-12-15 14:54:00+00:00,316.0,14.24,315.0,17.74,14.4,47.59359,-54.27349
2021-12-15 15:04:00+00:00,305.0,15.64,304.0,17.49,14.4,47.59359,-54.27349
2021-12-15 15:14:01+00:00,324.0,13.06,303.0,16.95,13.37,47.59359,-54.27349
2021-12-15 15:24:01+00:00,326.0,11.03,317.0,15.18,13.37,47.59359,-54.27349
2021-12-15 15:34:01+00:00,326.0,13.6,327.0,17.44,13.37,47.59359,-54.27349
2021-12-15 15:44:01+00:00,305.0,13.95,302.0,16.38,13.37,47.59359,-54.27349
2021-12-15 15:54:01+00:00,316.0,11.64,304.0,15.23,13.37,47.59359,-54.27349
2021-12-15 16:04:01+00:00,313.0,16.14,312.0,18.62,13.37,47.59359,-54.27349
2021-12-15 16:14:00+00:00,328.0,13.1,317.0,16.76,14.24,47.59359,-54.27349
2021-12-15 16:24:00+00:00,318.0,13.8,306.0,17.34,14.24,47.59359,-54.27349
2021-12-15 16:34:00+00:00,319.0,12.21,312.0,16.66,14.24,47.59359,-54.27349
2021-12-15 16:44:00+00:00,334.0,12.65,332.0,14.18,14.24,47.59359,-54.27349
2021-12-15 16:54:00+00:00,332.0,11.1,331.0,14.81,14.24,47.59359,-54.27349
2021-12-15 17:04:00+00:00,324.0,11.3,328.0,13.36,14.24,47.59359,-54.27349
2021-12-15 17:14:01+00:00,336.0,13.27,333.0,15.97,13.21,47.59359,-54.27349
2021-12-15 17:24:01+00:00,334.0,11.97,339.0,14.04,13.21,47.59359,-54.27349
2021-12-15 17:34:01+00:00,330.0,10.27,319.0,12.75,13.21,47.59359,-54.27349
2021-12-15 17:44:01+00:00,337.0,9.96,332.0,11.8,13.21,47.59359,-54.27349
2021-12-15 17:54:01+00:00,335.0,10.52,326.0,13.38,13.21,47.59359,-54.27349
2021-12-15 18:04:01+00:00,324.0,9.56,303.0,13.63,13.21,47.59359,-54.27349
2021-12-15 18:14:01+00:00,315.0,11.68,307.0,15.34,12.97,47.59359,-54.27349
2021-12-15 18:24:01+00:00,331.0,7.02,325.0,10.17,12.97,47.59359,-54.27349
2021-12-15 18:34:01+00:00,321.0,12.94,315.0,17.85,12.97,47.59359,-54.27349
2021-12-15 18:44:01+00:00,334.0,10.8,340.0,13.92,12.97,47.59359,-54.27349
2021-12-15 18:54:01+00:00,334.0,12.03,324.0,14.1,12.97,47.59359,-54.27349
2021-12-15 19:04:01+00:00,337.0,12.97,338.0,15.31,12.97,47.59359,-54.27349
2021-12-15 19:14:00+00:00,330.0,12.05,318.0,15.95,13.53,47.59359,-54.27349
2021-12-15 19:24:00+00:00,339.0,13.62,347.0,16.38,13.53,47.59359,-54.27349
2021-12-15 19:34:00+00:00,340.0,12.98,343.0,15.22,13.53,47.59359,-54.27349
2021-12-15 19:44:00+00:00,338.0,11.54,335.0,13.63,13.53,47.59359,-54.27349
2021-12-15 19:54:00+00:00,336.0,11.55,342.0,14.4,13.53,47.59359,-54.27349
2021-12-15 20:04:00+00:00,334.0,10.6,336.0,12.24,13.53,47.59359,-54.27349
2021-12-15 20:14:01+00:00,335.0,10.92,341.0,14.11,12.73,47.59359,-54.27349
2021-12-15 20:24:01+00:00,331.0,10.23,333.0,11.43,12.73,47.59359,-54.27349
2021-12-15 20:34:01+00:00,334.0,10.03,331.0,12.72,12.73,47.59359,-54.27349
2021-12-15 20:44:01+00:00,347.0,9.3,344.0,13.05,12.73,47.59359,-54.27349
2021-12-15 20:54:01+00:00,348.0,8.6,330.0,11.68,12.73,47.59359,-54.27349
2021-12-15 21:04:01+00:00,337.0,9.99,332.0,12.59,12.73,47.59359,-54.27349
2021-12-15 21:14:01+00:00,337.0,11.32,336.0,13.81,12.65,47.59359,-54.27349
2021-12-15 21:24:01+00:00,328.0,9.04,328.0,11.79,12.65,47.59359,-54.27349
2021-12-15 21:34:01+00:00,332.0,11.64,332.0,13.48,12.65,47.59359,-54.27349
2021-12-15 21:44:01+00:00,333.0,9.21,332.0,11.06,12.65,47.59359,-54.27349
2021-12-15 21:54:01+00:00,336.0,10.08,339.0,12.73,12.65,47.59359,-54.27349
2021-12-15 22:04:01+00:00,334.0,9.4,326.0,11.62,12.65,47.59359,-54.27349
2021-12-15 22:14:01+00:00,333.0,10.93,329.0,12.54,12.57,47.59359,-54.27349
2021-12-15 22:24:01+00:00,330.0,10.62,324.0,12.85,12.57,47.59359,-54.27349
2021-12-15 22:34:01+00:00,331.0,9.91,333.0,12.09,12.57,47.59359,-54.27349
2021-12-15 22:44:01+00:00,328.0,10.04,315.0,13.05,12.57,47.59359,-54.27349
2021-12-15 22:54:01+00:00,336.0,11.41,337.0,15.2,12.57,47.59359,-54.27349
2021-12-15 23:04:01+00:00,334.0,9.77,329.0,12.02,12.57,47.59359,-54.27349
2021-12-15 23:14:01+00:00,330.0,10.47,336.0,12.38,12.49,47.59359,-54.27349
2021-12-15 23:24:01+00:00,329.0,9.93,337.0,12.63,12.49,47.59359,-54.27349
2021-12-15 23:34:01+00:00,329.0,10.4,337.0,12.44,12.49,47.59359,-54.27349
2021-12-15 23:44:01+00:00,328.0,9.83,324.0,13.37,12.49,47.59359,-54.27349
2021-12-15 23:54:01+00:00,335.0,10.76,356.0,12.86,12.49,47.59359,-54.27349
